Location: fuzhou
(26.1169°N, 119.3250°E)
Time: 03:06:48
(UTC+08:00)

Hubble Space Telescope - Visible Passes

Search period start: 28 February 2021 00:00
Search period end: 10 March 2021 00:00
Orbit: 536 x 539 km, 28.5° (Epoch: 27 February)

Date Brightness Start Highest point End Pass type
(mag) Time Alt. Az. Time Alt. Az. Time Alt. Az.
28 Feb 3.0 19:41:59 10° SSW 19:43:11 15° S 19:43:11 15° S visible
01 Mar 2.3 19:30:36 10° SSW 19:33:18 22° SSE 19:33:18 22° SSE visible
02 Mar 1.8 19:19:23 10° SW 19:22:59 29° SSE 19:23:23 29° SE visible
03 Mar 1.5 19:08:17 10° SW 19:12:05 37° SSE 19:13:26 29° ESE visible
04 Mar 1.2 18:57:15 10° SW 19:01:12 47° SSE 19:03:26 23° E visible
04 Mar 3.8 20:38:13 10° W 20:38:46 13° W 20:38:46 13° W visible
05 Mar 1.0 18:46:16 10° WSW 18:50:19 58° SSE 18:53:23 17° E visible
05 Mar 3.3 20:27:24 10° W 20:28:43 19° W 20:28:43 19° W visible
06 Mar 0.8 18:35:21 10° WSW 18:39:27 71° SSE 18:43:17 12° E visible
06 Mar 2.8 20:16:36 10° W 20:18:36 27° WNW 20:18:36 27° WNW visible
07 Mar 2.1 20:05:48 10° W 20:08:28 37° WNW 20:08:28 37° WNW visible
08 Mar 1.5 19:55:00 10° W 19:58:18 50° NW 19:58:18 50° NW visible
09 Mar 0.9 19:44:10 10° WNW 19:48:07 62° N 19:48:07 62° N visible
